Starlink 1185

operational
NORAD ID: 45087 Int'l Des: 2020-006 Owner: SPXS Country: US Constellation: starlink
LEOCIRCULARSTARLINK_TYPE

关于 Starlink 1185

正在加载描述...

实时位置

正在加载3D地球...

即将过境

高度历史

Altitude vs Time

uPlot chart will show altitude changes over time

两行轨道根数

1 45087U 20006AV 25258.85319728 -.00002737 00000-0 -16494-3 0 9995
2 45087 53.0569 311.4893 0001252 88.5182 271.5950 15.06399301310678
Epoch: Sep 15, 2025 • Age: 59 hours

当前状态

高度 549.4 km
速度 7.59 km/s
星下点 35.71°N, 138.52°W
发射日期 Jan 29, 2020
运行时间 5.6 years
类型 internet

技术详情

分类 Payload
质量 260.00 kg
干质量 248.00 kg
总质量 260.00 kg
长度 0.20 m
直径 2.80 m
跨度 9.00 m
形状 Box + pan
制造商 SPXS
平台类型 Starlink
阶段状态 In Orbit
所有者/国家 SPXS/US

大型星座

Loading constellations...